Weather History for Deming, NM

Change the Weather History Date:

Friday, December 6, 2013

  Actual Average Record
Temperature  
Mean Temperature 37 °F 43 °F  
Max Temperature 48 °F 58 °F 76 °F (2012)
Min Temperature 26 °F 28 °F 7 °F (1953)
Degree Days  
Heating Degree Days 28    
Moisture  
Dew Point 18 °F    
Average Humidity 54    
Maximum Humidity 89    
Minimum Humidity 23    
Precipitation  
Precipitation 0.00 in 0.03 in 0.15 in (1960)
Month to date precipitation 0.19  
Year to date precipitation 10.85  
Sea Level Pressure  
Sea Level Pressure 30.05 in    
Wind  
Wind Speed 8 mph (West)    
Max Wind Speed 15 mph    
Max Gust Speed 22 mph    
Visibility 10 miles    
Events      
T = Trace of Precipitation, MM = Missing Value Source: NWS Daily Summary

Daily Weather History Graph

Daily Weather History Graph

Search for Another Location

Airport:

Trip Planner

Search our weather history database for the weather conditions in past years. The results will help you decide how hot, cold, wet, or windy it might be!

Date:

Astronomy

Dec. 06, 2013 Rise Set
Actual Time 6:58 AM MST 5:05 PM MST
Civil Twilight 6:31 AM MST 5:32 PM MST
Nautical Twilight 6:01 AM MST 6:03 PM MST
Astronomical Twilight 5:31 AM MST 6:32 PM MST
Moon 10:13 AM MST (12/6) 9:31 PM MST (12/6)
Length of Visible Light 11h 01m
Length of Day
10h 07m
Waxing Crescent, 20% of the Moon is Illuminated
Dec 6
Waxing Crescent
Dec 9
First Quarter
Dec 17
Full
Dec 25
Last Quarter
Jan 1
New

Hourly Weather History & Observations

Time (MST) Temp. Windchill Dew Point Humidity Pressure Visibility Wind Dir Wind Speed Gust Speed Precip Events Conditions
12:53 AM 37.9 °F 30.5 °F 30.9 °F 76% 29.94 in 10.0 mi WSW 11.5 mph - N/A   Overcast
1:53 AM 34.0 °F 27.2 °F 28.9 °F 82% 29.94 in 10.0 mi West 8.1 mph - N/A   Clear
2:53 AM 33.1 °F 24.9 °F 27.0 °F 78% 29.97 in 10.0 mi West 10.4 mph - N/A   Clear
3:53 AM 30.9 °F 22.2 °F 27.0 °F 85% 30.00 in 10.0 mi West 10.4 mph - N/A   Clear
4:53 AM 30.0 °F 23.2 °F 24.1 °F 79% 30.03 in 10.0 mi SSW 6.9 mph - N/A   Mostly Cloudy
5:53 AM 27.0 °F 19.5 °F 24.1 °F 89% 30.05 in 10.0 mi SSW 6.9 mph - N/A   Clear
6:53 AM 26.1 °F 18.4 °F 21.9 °F 84% 30.08 in 10.0 mi WSW 6.9 mph - N/A   Clear
7:53 AM 28.9 °F 22.8 °F 21.9 °F 75% 30.10 in 10.0 mi West 5.8 mph - N/A   Clear
8:53 AM 35.1 °F 31.0 °F 21.9 °F 59% 30.12 in 10.0 mi West 4.6 mph - N/A   Clear
9:53 AM 41.0 °F 34.7 °F 21.0 °F 45% 30.10 in 10.0 mi WNW 10.4 mph - N/A   Clear
10:53 AM 43.0 °F 35.7 °F 19.9 °F 40% 30.09 in 10.0 mi WNW 15.0 mph 21.9 mph N/A   Clear
11:53 AM 44.1 °F 42.5 °F 19.0 °F 37% 30.07 in 10.0 mi Variable 3.5 mph - N/A   Clear
12:53 PM 46.0 °F 43.1 °F 19.0 °F 34% 30.03 in 10.0 mi WNW 5.8 mph 16.1 mph N/A   Clear
1:53 PM 48.0 °F - 16.0 °F 28% 30.01 in 10.0 mi West 11.5 mph 17.3 mph N/A   Clear
2:53 PM 48.0 °F - 12.9 °F 24% 30.01 in 10.0 mi WSW 9.2 mph - N/A   Clear
3:53 PM 46.9 °F - 10.9 °F 23% 30.03 in 10.0 mi WSW 6.9 mph - N/A   Clear
4:53 PM 44.1 °F 40.8 °F 10.9 °F 26% 30.04 in 10.0 mi SW 5.8 mph - N/A   Clear
5:53 PM 37.9 °F - 10.9 °F 33% 30.07 in 10.0 mi Calm Calm - N/A   Clear
6:53 PM 35.1 °F 32.2 °F 10.9 °F 37% 30.10 in 10.0 mi South 3.5 mph - N/A   Clear
7:53 PM 30.9 °F - 12.9 °F 47% 30.12 in 10.0 mi Calm Calm - N/A   Clear
8:53 PM 28.9 °F 25.2 °F 12.9 °F 51% 30.11 in 10.0 mi NNW 3.5 mph - N/A   Clear
9:53 PM 28.9 °F 22.8 °F 12.9 °F 51% 30.09 in 10.0 mi North 5.8 mph - N/A   Clear
10:53 PM 27.0 °F 21.6 °F 12.9 °F 56% 30.09 in 10.0 mi NNW 4.6 mph - N/A   Clear
11:53 PM 26.1 °F 20.5 °F 12.9 °F 58% 30.08 in 10.0 mi NW 4.6 mph - N/A   Clear